Location: Düngen
(52.0952°N, 10.0219°E)
Time: 15:48:00
(UTC+00:00)

Feng Yun 1-1 Rocket - Pass Details

Date: 11 March 2026
Orbit: 828 x 933 km, 99.0° (Epoch: 13 April)

Event Time Altitude Azimuth Distance (km) Brightness Sun altitude
Exits shadow 18:45:57 - 146° (SSE) 2,695 6.4 -14.3°
Reaches altitude 10° 18:46:07 10° 146° (SE) 2,636 6.3 -14.4°
Maximum altitude 18:51:55 61° 68° (ENE) 1,047 4.4 -15.2°
Drops below altitude 10° 18:57:40 10° 349° (N) 2,615 7.1 -16.1°
Sets 19:00:06 0° 347° (NNW) 3,548 7.9 -16.4°
